Location: Knowlton
(51.2333°N, 1.2667°E)
Time: 04:06:05
(UTC+00:00)

Terra - Pass Details

Date: 18 April 2021
Orbit: 701 x 703 km, 98.2° (Epoch: 06 May)

Event Time Altitude Azimuth Distance (km) Brightness Sun altitude
Exits shadow 23:07:52 17° 259° (W) 1,751 3.8 -26.8°
Maximum altitude 23:08:38 18° 271° (W) 1,722 3.9 -26.8°
Drops below altitude 10° 23:11:48 10° 313° (NW) 2,180 5.0 -26.9°
Sets 23:14:48 0° 333° (NNW) 3,104 6.3 -27.0°
